| time (UTC) | temp F | wind direction | speed knots | gust knots | rain 1hr in | rain 24hr in | rain mn in | humidity % | barometer mb |
| 20260510081551 | 55 | 0 | 0.0 | 0.0 | 0.00 | 0.00 | 0.00 | 96 | 1014.6 |
| 20260510080059 | 55 | 0 | 0.0 | 0.0 | 0.00 | 0.00 | 0.00 | 96 | 1014.5 |
| 20260510074600 | 56 | 0 | 0.0 | 0.0 | 0.00 | 0.00 | 0.00 | 95 | 1014.4 |
| 20260510073051 | 56 | 0 | 0.0 | 0.0 | 0.00 | 0.00 | 0.00 | 96 | 1014.3 |
| 20260510071549 | 56 | 0 | 0.0 | 0.0 | 0.00 | 0.00 | 0.00 | 95 | 1014.4 |
| 20260510064549 | 56 | 0 | 0.0 | 0.0 | 0.00 | 0.00 | 0.00 | 94 | 1014.5 |
| 20260510063050 | 57 | 0 | 0.0 | 0.0 | 0.00 | 0.00 | 0.00 | 94 | 1014.5 |
| 20260510061547 | 57 | 0 | 0.0 | 0.0 | 0.00 | 0.00 | 0.00 | 93 | 1014.5 |
| 20260510060048 | 57 | 0 | 0.0 | 0.0 | 0.00 | 0.00 | 0.00 | 93 | 1014.5 |
| 20260510054549 | 58 | 0 | 0.0 | 0.0 | 0.00 | 0.00 | 0.00 | 92 | 1014.5 |
| 20260510053053 | 58 | 0 | 0.0 | 0.0 | 0.00 | 0.00 | 0.00 | 92 | 1014.7 |
| 20260510051601 | 58 | 0 | 0.0 | 0.0 | 0.00 | 0.00 | 0.00 | 91 | 1014.7 |
| 20260510050059 | 59 | 0 | 0.0 | 0.0 | 0.00 | 0.00 | 0.00 | 90 | 1014.4 |
| 20260510044543 | 59 | 0 | 0.0 | 0.0 | 0.00 | 0.00 | 0.00 | 89 | 1014.4 |
| 20260510043046 | 59 | 0 | 0.0 | 0.0 | 0.00 | 0.00 | 0.00 | 88 | 1014.5 |
| 20260510041548 | 60 | 0 | 0.0 | 0.0 | 0.00 | 0.00 | 0.00 | 88 | 1014.4 |
| 20260510040100 | 60 | 0 | 0.0 | 0.0 | 0.00 | 0.00 | 0.00 | 87 | 1014.3 |
| 20260510034550 | 61 | 0 | 0.0 | 0.0 | 0.00 | 0.00 | 0.00 | 86 | 1014.3 |
| 20260510033054 | 61 | 0 | 0.0 | 4.3 | 0.00 | 0.00 | 0.00 | 85 | 1014.5 |
| 20260510031552 | 62 | 0 | 0.0 | 2.6 | 0.00 | 0.00 | 0.00 | 83 | 1014.4 |
| 20260510030048 | 63 | 0 | 0.0 | 3.5 | 0.00 | 0.00 | 0.00 | 81 | 1014.3 |
| 20260510024548 | 64 | 0 | 0.0 | 0.0 | 0.00 | 0.00 | 0.00 | 79 | 1014.0 |
| 20260510023045 | 64 | 0 | 0.0 | 0.0 | 0.00 | 0.00 | 0.00 | 79 | 1013.8 |
| 20260510021635 | 64 | 0 | 0.0 | 4.3 | 0.00 | 0.00 | 0.00 | 79 | 1013.7 |
| 20260510020051 | 65 | 0 | 0.0 | 0.0 | 0.00 | 0.00 | 0.00 | 75 | 1013.5 |
| 20260510014552 | 65 | 0 | 0.0 | 0.0 | 0.00 | 0.00 | 0.00 | 74 | 1013.2 |
| 20260510013057 | 66 | 0 | 0.0 | 0.0 | 0.00 | 0.00 | 0.00 | 72 | 1013.1 |
| 20260510011549 | 67 | 0 | 0.0 | 0.0 | 0.00 | 0.00 | 0.00 | 70 | 1012.8 |
| 20260510010054 | 68 | 0 | 0.0 | 0.0 | 0.00 | 0.00 | 0.00 | 68 | 1012.7 |
| 20260510004552 | 69 | 0 | 0.0 | 0.0 | 0.00 | 0.00 | 0.00 | 66 | 1012.6 |
| 20260510003052 | 70 | 0 | 0.0 | 0.0 | 0.00 | 0.00 | 0.00 | 67 | 1012.5 |
| 20260510001545 | 71 | 0 | 0.0 | 0.0 | 0.00 | 0.00 | 0.00 | 66 | 1012.4 |
| 20260510000048 | 71 | 0 | 0.0 | 0.0 | 0.00 | 0.00 | 0.00 | 66 | 1012.1 |
| 20260509234543 | 72 | 0 | 0.9 | 2.6 | 0.00 | 0.00 | 0.00 | 64 | 1012.0 |
| 20260509233044 | 72 | 0 | 0.0 | 1.7 | 0.00 | 0.00 | 0.00 | 65 | 1011.8 |
| 20260509231552 | 72 | 0 | 0.0 | 1.7 | 0.00 | 0.00 | 0.00 | 64 | 1011.8 |
| 20260509230052 | 73 | 290 | 0.9 | 3.5 | 0.00 | 0.00 | 0.00 | 62 | 1012.0 |
| 20260509224544 | 73 | 0 | 0.9 | 3.5 | 0.00 | 0.00 | 0.00 | 63 | 1011.8 |
| 20260509223052 | 73 | 0 | 0.0 | 5.2 | 0.00 | 0.00 | 0.00 | 64 | 1011.8 |
| 20260509221549 | 73 | 0 | 0.9 | 5.2 | 0.00 | 0.00 | 0.00 | 67 | 1011.8 |
| 20260509220053 | 73 | 227 | 2.6 | 4.3 | 0.00 | 0.00 | 0.00 | 65 | 1011.8 |
| 20260509214549 | 73 | 229 | 1.7 | 4.3 | 0.00 | 0.00 | 0.00 | 69 | 1011.6 |
| 20260509213105 | 73 | 236 | 2.6 | 5.2 | 0.00 | 0.00 | 0.00 | 67 | 1011.7 |
| 20260509211549 | 72 | 196 | 1.7 | 6.1 | 0.00 | 0.00 | 0.00 | 71 | 1011.7 |
| 20260509210050 | 73 | 248 | 0.9 | 3.5 | 0.00 | 0.00 | 0.00 | 66 | 1011.6 |
| 20260509204549 | 74 | 260 | 0.9 | 6.1 | 0.00 | 0.00 | 0.00 | 65 | 1011.4 |
| 20260509203050 | 74 | 284 | 2.6 | 7.0 | 0.00 | 0.00 | 0.00 | 65 | 1011.5 |
| 20260509201546 | 73 | 256 | 2.6 | 7.0 | 0.00 | 0.00 | 0.00 | 67 | 1011.8 |
| 20260509200052 | 74 | 260 | 2.6 | 7.8 | 0.00 | 0.00 | 0.00 | 69 | 1011.9 |
| 20260509194556 | 73 | 207 | 2.6 | 5.2 | 0.00 | 0.00 | 0.00 | 69 | 1012.0 |
| 20260509193054 | 73 | 283 | 2.6 | 7.8 | 0.00 | 0.00 | 0.00 | 67 | 1012.1 |
| 20260509191605 | 72 | 266 | 2.6 | 8.7 | 0.00 | 0.00 | 0.00 | 69 | 1012.3 |
| 20260509190051 | 72 | 213 | 1.7 | 7.0 | 0.00 | 0.00 | 0.00 | 73 | 1012.3 |
| 20260509184601 | 72 | 215 | 1.7 | 6.1 | 0.00 | 0.00 | 0.00 | 69 | 1012.1 |
| 20260509183055 | 71 | 275 | 2.6 | 7.8 | 0.00 | 0.00 | 0.00 | 72 | 1012.1 |
| 20260509181554 | 71 | 270 | 1.7 | 7.0 | 0.00 | 0.00 | 0.00 | 74 | 1011.8 |
| 20260509180057 | 70 | 276 | 1.7 | 5.2 | 0.00 | 0.00 | 0.00 | 74 | 1011.8 |
| 20260509174551 | 69 | 194 | 2.6 | 5.2 | 0.00 | 0.00 | 0.00 | 74 | 1011.8 |
| 20260509173103 | 67 | 188 | 0.9 | 3.5 | 0.00 | 0.00 | 0.00 | 79 | 1012.0 |
| 20260509171547 | 68 | 0 | 0.0 | 5.2 | 0.00 | 0.00 | 0.00 | 78 | 1012.2 |
| 20260509170053 | 68 | 242 | 0.9 | 5.2 | 0.00 | 0.00 | 0.00 | 76 | 1012.3 |
| 20260509164543 | 67 | 251 | 0.0 | 5.2 | 0.00 | 0.00 | 0.00 | 81 | 1012.4 |
| 20260509163043 | 65 | 261 | 1.7 | 5.2 | 0.00 | 0.00 | 0.00 | 81 | 1012.5 |
| 20260509161554 | 65 | 0 | 0.9 | 5.2 | 0.00 | 0.00 | 0.00 | 82 | 1012.5 |
| 20260509160047 | 65 | 0 | 0.9 | 6.1 | 0.00 | 0.00 | 0.00 | 82 | 1012.5 |
| 20260509154549 | 64 | 0 | 0.0 | 3.5 | 0.00 | 0.00 | 0.00 | 84 | 1012.5 |
| 20260509153057 | 63 | 238 | 0.9 | 5.2 | 0.00 | 0.00 | 0.00 | 84 | 1012.4 |
| 20260509151546 | 63 | 225 | 0.0 | 3.5 | 0.00 | 0.00 | 0.00 | 84 | 1012.1 |
| 20260509150045 | 63 | 236 | 1.7 | 5.2 | 0.00 | 0.00 | 0.00 | 85 | 1012.0 |
| 20260509144550 | 62 | 229 | 0.9 | 4.3 | 0.00 | 0.00 | 0.00 | 86 | 1011.8 |
| 20260509143048 | 61 | 0 | 0.0 | 0.0 | 0.00 | 0.00 | 0.00 | 88 | 1011.8 |
| 20260509141545 | 61 | 180 | 0.0 | 4.3 | 0.00 | 0.00 | 0.00 | 88 | 1011.9 |
| 20260509140056 | 60 | 215 | 0.9 | 7.0 | 0.00 | 0.00 | 0.00 | 89 | 1011.8 |
| 20260509134546 | 60 | 200 | 0.9 | 4.3 | 0.00 | 0.00 | 0.00 | 89 | 1011.6 |
| 20260509133051 | 59 | 244 | 0.0 | 7.0 | 0.00 | 0.00 | 0.00 | 89 | 1011.7 |
| 20260509131545 | 59 | 227 | 0.9 | 7.8 | 0.00 | 0.00 | 0.00 | 89 | 1011.9 |
| 20260509130044 | 58 | 233 | 2.6 | 6.1 | 0.00 | 0.00 | 0.00 | 89 | 1012.1 |
| 20260509124547 | 57 | 236 | 1.7 | 5.2 | 0.00 | 0.00 | 0.00 | 90 | 1011.9 |
| 20260509123046 | 56 | 0 | 0.9 | 3.5 | 0.00 | 0.00 | 0.00 | 91 | 1011.7 |
| 20260509121549 | 55 | 158 | 0.0 | 4.3 | 0.00 | 0.00 | 0.00 | 90 | 1011.5 |
| 20260509120047 | 54 | 139 | 1.7 | 6.1 | 0.00 | 0.00 | 0.00 | 90 | 1011.4 |
| 20260509114543 | 53 | 147 | 1.7 | 4.3 | 0.00 | 0.00 | 0.00 | 90 | 1011.4 |
| 20260509113047 | 52 | 0 | 0.0 | 0.0 | 0.00 | 0.00 | 0.00 | 89 | 1011.4 |
| 20260509111546 | 52 | 0 | 0.0 | 0.0 | 0.00 | 0.00 | 0.00 | 89 | 1011.5 |
| 20260509110050 | 52 | 0 | 0.0 | 0.0 | 0.00 | 0.00 | 0.00 | 89 | 1011.6 |
| 20260509104546 | 53 | 0 | 0.0 | 0.0 | 0.00 | 0.00 | 0.00 | 88 | 1011.4 |
| 20260509103052 | 53 | 0 | 0.0 | 1.7 | 0.00 | 0.00 | 0.00 | 88 | 1011.4 |
| 20260509101547 | 53 | 0 | 0.0 | 0.0 | 0.00 | 0.00 | 0.00 | 88 | 1011.5 |
| 20260509100049 | 52 | 136 | 0.0 | 2.6 | 0.00 | 0.00 | 0.00 | 88 | 1011.5 |
| 20260509094557 | 52 | 0 | 0.0 | 0.0 | 0.00 | 0.00 | 0.00 | 88 | 1011.5 |
| 20260509093044 | 52 | 0 | 0.0 | 0.0 | 0.00 | 0.00 | 0.00 | 90 | 1011.8 |
| 20260509091550 | 52 | 0 | 0.0 | 0.0 | 0.00 | 0.00 | 0.00 | 88 | 1012.0 |
| 20260509090055 | 52 | 0 | 0.0 | 0.0 | 0.00 | 0.00 | 0.00 | 89 | 1011.4 |
| 20260509084559 | 52 | 0 | 0.0 | 0.0 | 0.00 | 0.00 | 0.00 | 87 | 1011.6 |
| 20260509083059 | 52 | 0 | 0.0 | 0.0 | 0.00 | 0.00 | 0.00 | 86 | 1011.3 |